STARLINK-32867, 62855

Orbit data source: Space-Track

STARLINK-32867, 62855 is a payload satellite owned by SpaceX/Seattle (US) in LEO that was launched on Sat, 01 Feb 2025 UTC via an FALCON 9 launch vehicle from the Air Force Western Test Range (AFWTR). Payload-class satellites include a variety of spacecraft equipped with specific instruments for various scientific and technological missions. These include communications satellites like Starlink; space stations such as the ISS; scientific satellites like the Hubble; Earth observation satellites from companies like Planet Labs, Umbra, and HawkEye 360; GPS; miniature CubeSats for education and research; and military/defense satellites.

Loading next visibility...
Identifier
62855, 2025-022B
Orbit
LEO
Country
Flag of USUS
Related business
Manufacturer
SpaceX/Seattle
Mission
Operational Commercial Communications
Bus & Motor
STARLINK V2M, Unknown motor
Mass
730 kg wet, ~700 kg dry
Launch date (UTC)
2025-02-01 (7 months ago)
Launch vehicle
FALCON 9
Launch site
Air Force Western Test Range (AFWTR)
Object type
Payload
Rocket body
Debris
Shape & HBR
Box + 2 Pan, 14.5 m
Radar Cross Section
33.884 m², Large (>1 m²)

Expand to show TLE details & history
Last TLE update: 9 hours ago

TLE from 9 hours ago
0 STARLINK-32867
1 62855U 25022B   25259.16294593  .00021252  00000-0  72652-3 0  9996
2 62855  53.1580 219.9533 0002054 103.2303 256.8927 15.30247980 35180
Epoch: 2025-09-16T03:54Z
TLE epoch observation values (Epoch: 2025-09-16T03:54:38.528Z)
Latitude
-0.00001°
Longitude
165.93556°
Altitude
476.291 km
Speed
7.629 km/s
True Right ascension
14h 39m 48s
True Declination
0° 00' 00"
Sunlit
Object was in daylight at epoch
Visualization orbit readout
Latitude
Unknown
Longitude
Unknown
Altitude
Unknown
Speed
Unknown
Apparent Right ascension
Unknown
Apparent Declination
Unknown
Sunlit
N/A
Visualization observer readout
Local Sidereal Time
05:28:21
Azimuth
Unknown
Elevation
Unknown
Doppler factor
Unknown
Orbital elements
Apogee altitude
476.736 km
Perigee altitude
473.921 km
Semi-major axis
6,853.466 km
Eccentricity
0.00021
Inclination
53.158°
RAAN
219.9533°
Arg. of periapsis
103.2303°
True anomaly
256.86978°
Mean anomaly
256.8927°
Eccentric anomaly
256.88124°
Mean motion
3.82541 °/min
Orbital period
94.11 mins
BSTAR
0.00072652
Loading maneuver chart data...
Computing Atmospheric mass density...
Loading historical data...
Loading historical data...
Loading historical data...
Loading historical data...
Loading historical data...
Loading historical data...
Loading historical data...

Documentation

Showing up to 5 results
|